Tracking 19199 objects as of 25-Jun-2018
HD Live streaming from Space Station
objects crossing your sky now

FENGYUN 1C DEB

Track FENGYUN 1C DEB now!
10-day predictions


NORAD ID: 30750
Int'l Code: 1999-025ATL
Perigee: 823.1 km
Apogee: 891.6 km
Inclination: 99.1 °
Period: 101.9 minutes
Semi major axis: 7228 km
RCS: 0.023 m2 (small)
Launch date: May 10, 1999
Source: People's Republic of China (PRC)
Launch site: Taiyaun Space Center, China (TSC)

Note: This is SATELLITE DEBRIS
aabbcc
Your satellite tracking list
Your tracking list is empty




NASA's NSSDC Master Catalog

Two Line Element Set (TLE):
1 30750U 99025ATL 18175.93931553  .00000608  00000-0  34922-3 0  9997
2 30750  99.0743 178.4302 0047407 290.5445 130.7238 14.12672482581628
Source of the keplerian elements: AFSPC